Погода в Паарле

ЮАР     33°43′33″S   18°59′04″E
темп.,
°C
ветер,
м/с
пор.,
м/с
влажн.,
%
обл.,
%
осадки,
мм/ч
давл.,
гПа
погр.,
м
24 июля, сб
сб2423:00+6вюв32600 0.0 103327
02:00+6вюв32570 0.0 103318
05:00+6в32532 0.0 103120
08:00+6в335424 0.0 103125
11:00+13всв114290 0.0 1030201
14:00+16з11395 0.0 1028553
17:00+14з11585 0.0 102711
20:00+10вюв22596 0.0 102813
25 июля, вс
вс2523:00+9вюв224998 0.0 102812
02:00+10вюв2234100 0.0 102712
05:00+10вюв3228100 0.0 102615
08:00+10в3231100 0.0 102619
11:00+17в1133100 0.0 1026111
14:00+20с1131100 0.0 1023311
17:00+16всв1152100 0.0 102311
20:00+13в3335100 0.0 102319
26 июля, пн
пн2623:00+13в3232100 0.0 102214
02:00+14в333297 0.0 102115
05:00+13в2235100 0.0 101911
08:00+13всв2237100 0.0 101912
11:00+20с2440100 0.0 1019180
14:00+21ссз3636100 0.0 1017609
17:00+18ссв12575 0.0 101619
20:00+13с22573 0.0 101612
27 июля, вт
вт2723:00+11с22660 0.0 101614
02:00+10ссв22610 0.0 101520
05:00+9ссв33590 0.0 101530
08:00+8с33560 0.0 101637
11:00+13с511520 0.0 1017855
14:00+14сз81371100 0.4 10161673
17:00+10з4998100 5.3 1017860
20:00+9з2795100 9.9 1021743
28 июля, ср
ср2823:00+9зсз228586 1.1 102275
02:00+6сз118730 1.3 102316
05:00+6с118759 0.4 102413
08:00+6с118344 0.7 102713
11:00+10сз22645 0.1 1028936
14:00+11ссз226029 0.2 10271240
17:00+11зсз236565 0.0 1027392
20:00+6зюз018430 0.0 102912